Tracking 29933 objects as of 2-Dec-2024
HD Live streaming from Space Station
objects crossing your sky now

STARLINK-30984

Track STARLINK-30984 now!
10-day predictions
STARLINK-30984 is classified as:


NORAD ID: 58480
Int'l Code: 2023-186H
Perigee: 566.3 km
Apogee: 566.6 km
Inclination: 43.0 °
Period: 95.8 minutes
Semi major axis: 6937 km
RCS: Unknown
Launch date: December 3, 2023
Source: United States (US)
Launch site: AIR FORCE EASTERN TEST RANGE (AFETR)
Your satellite tracking list
Your tracking list is empty




NASA's NSSDC Master Catalog

Two Line Element Set (TLE):
1 58480U 23186H   24336.58372764  .00019317  00000-0  14442-2 0  9993
2 58480  43.0025  63.3795 0000199 229.7558 130.3267 15.02455724 56155
Source of the keplerian elements: AFSPC